Location: Lane
(33.5226°N, 79.8788°W)
Time: 19:06:03
(UTC+00:00)

Courier 1B Rocket - Pass Details

Date: 09 October 2022
Orbit: 920 x 1202 km, 28.3° (Epoch: 01 December)

Event Time Altitude Azimuth Distance (km) Brightness Sun altitude
Rises 22:17:35 0° 252° (WSW) 3,995 10.8 6.5°
Reaches altitude 10° 22:20:31 10° 248° (WSW) 2,998 9.9 5.9°
Maximum altitude 22:27:39 54° 173° (S) 1,284 5.8 4.4°
Drops below altitude 10° 22:34:17 10° 98° (E) 2,795 6.8 3.1°
Sets 22:36:56 0° 94° (E) 3,706 7.4 2.5°
